Regional Weather Roundup
Issued by NWS

Home | Current Version | Previous Version | Text Only | Print | Product List | Glossary Off
Versions: 1 2 3 4 5 6 7 8 9 10 11 12 13 14 15 16 17 18 19 20 21 22 23 24 25 26 27 28 29 30 31 32 33 34 35 36 37 38 39 40 41 42 43 44 45 46 47 48 49 50

000
ASUS43 KIND 031809
RWRIN

WEATHER ROUNDUP FOR INDIANA
NATIONAL WEATHER SERVICE INDIANAPOLIS IN
200 PM EDT SUN MAY 03 2015

NOTE: "FAIR" INDICATES FEW OR NO CLOUDS BELOW 12,000 FEET WITH NO
SIGNIFICANT WEATHER AND/OR OBSTRUCTIONS TO VISIBILITY.

* - STATION DOES NOT REPORT WEATHER SUCH AS PRECIPITATION OR FOG.

+ - STATION NOT QUALITY CONTROLLED BY THE NATIONAL WEATHER SERVICE.
    USE DATA WITH CAUTION...ESPECIALLY DEWPOINT AND RELATIVE
    HUMIDITY OBSERVATIONS.

INZ001>003-010>013-019-020-031900-
NORTHWEST INDIANA

CITY           SKY/WX    TMP DP  RH WIND       PRES   REMARKS
GARY /AIRPORT/ PTSUNNY   81 N/A N/A S15G28    29.96F
KNOX *+        MOSUNNY   81 -13   2 S15G24    29.99F
LA PORTE +     PTSUNNY   79  43  28 SW18G24   30.00F
6HR MIN TEMP:  57; 6HR MAX TEMP:  80;

MICHIGAN CITY+ CLOUDY    77  34  20 SW15G21   29.99F
MONTICELLO +   MOSUNNY   75  49  39 SW14      30.02F
6HR MIN TEMP:  57; 6HR MAX TEMP:  76;

VALPARAISO     PTSUNNY   78  42  27 S16G24    30.00F
6HR MIN TEMP:  57; 6HR MAX TEMP:  78;


$$

LMZ046-743>745-031900-
SOUTHERN LAKE MICHIGAN

STATION/POSITION TIME  TEMP    WIND        PRES    WAVE
                       AIR SEA DIR/SP/G            HT
                 (UTC) (F)     (DEG/KT/KT) (MB)    (FT)
BURNS HARBOR     1800   74     200/ 16/ 21 1015.9S
MICHIGAN CITY    1800   74     200/ 15/ 19   N/A
5NW MICH CITY    1800   64 50  240/ 12/ 14   N/A     1

$$

INZ004-005-014>016-021>024-031900-
NORTH CENTRAL INDIANA

CITY           SKY/WX    TMP DP  RH WIND       PRES   REMARKS
ELKHART        MOSUNNY   77  37  24 SW12G18   30.01F
GOSHEN         SUNNY     77  46  33 SW16G25   30.02F
6HR MIN TEMP:  57; 6HR MAX TEMP:  77;

LOGANSPORT +   MOSUNNY   75  39  27 S9G20     30.04F
PERU/GRISSOM   MOSUNNY   76  50  40 S12G20    30.04F
6HR MIN TEMP:  56; 6HR MAX TEMP:  76;

ROCHESTER +    SUNNY     79  45  29 S12G20    30.04F
SOUTH BEND     MOSUNNY   79  41  25 SW13G25   30.01F
6HR MIN TEMP:  58; 6HR MAX TEMP:  80;

WARSAW +       SUNNY     75  45  33 SW12      30.04F

$$

INZ006>009-017-018-025>027-031900-
NORTHEAST INDIANA

CITY           SKY/WX    TMP DP  RH WIND       PRES   REMARKS
ANGOLA *+      SUNNY     79  70  73 SW15      30.04S
AUBURN +       SUNNY     77  43  29 S12G18    30.05F
FORT WAYNE     MOSUNNY   75  46  35 SW14G26   30.06F
6HR MIN TEMP:  53; 6HR MAX TEMP:  76;

HUNTINGTON +   SUNNY     74  44  35 SW13G20   30.06F
6HR MIN TEMP:  54; 6HR MAX TEMP:  74;


$$

INZ028-029-035-036-043>045-051>053-031900-
WEST CENTRAL INDIANA

CITY           SKY/WX    TMP DP  RH WIND       PRES   REMARKS
CRAWFORDSVL +  MOSUNNY   75  35  23 S18       30.05F
6HR MIN TEMP:  54; 6HR MAX TEMP:  75;

GREENCASTLE +  MOSUNNY   73  41  31 S10G21    30.07F
LAFAYETTE      PTSUNNY   76  45  33 S10G21    30.02F
6HR MIN TEMP:  54; 6HR MAX TEMP:  76;

TERRE HAUTE    SUNNY     77  48  35 S13       30.05F
6HR MIN TEMP:  56; 6HR MAX TEMP:  78;


$$

INZ030>032-037>040-046>048-054>057-064-065-031900-
CENTRAL INDIANA

CITY           SKY/WX    TMP DP  RH WIND       PRES   REMARKS
CP ATTERBURY + SUNNY     75  46  35 S9G21     30.09F
COLUMBUS       SUNNY     73  43  33 S16G23    30.09F
FISHERS *+     SUNNY     73  54  49 S14       30.07F
FRANKFORT +    PTSUNNY   76  46  34 S15G21    30.07F
6HR MIN TEMP:  57; 6HR MAX TEMP:  78;

GREENWOOD *+   SUNNY     77  43  29 SW12G21   30.08F
INDIANAPOLIS   PTSUNNY   75  48  38 SW7       30.05F
6HR MIN TEMP:  55; 6HR MAX TEMP:  75;

-EAGLE CREEK   MOSUNNY   76  49  38 SW14G20   30.06F
6HR MIN TEMP:  55; 6HR MAX TEMP:  76;

MARION +       SUNNY     75  42  30 S15G21    30.08F
MT COMFORT *+  SUNNY     75  25  15 SW13G18   30.08F
SHELBYVILLE    SUNNY     77  50  38 S9G20     30.08F
6HR MIN TEMP:  56; 6HR MAX TEMP:  77;

ZIONSVILLE +   MOSUNNY   75  43  31 S9        30.07F
6HR MIN TEMP:  55; 6HR MAX TEMP:  76;


$$

INZ033-034-041-042-049-050-058-059-031900-
EAST CENTRAL INDIANA

CITY           SKY/WX    TMP DP  RH WIND       PRES   REMARKS
MUNCIE         MOSUNNY   75  46  35 SW16G23   30.08F
6HR MIN TEMP:  57; 6HR MAX TEMP:  75;


$$

INZ060-061-067>069-081>083-085>088-031900-
SOUTHWEST INDIANA

CITY           SKY/WX    TMP DP  RH WIND       PRES   REMARKS
EVANSVILLE     SUNNY     78  47  33 SW12G17   30.08F
6HR MIN TEMP:  56; 6HR MAX TEMP:  78;

HUNTINGBURG *+ SUNNY     75  50  41 SW12G18   30.10F
6HR MIN TEMP:  55; 6HR MAX TEMP:  75;

WASHINGTON +   SUNNY     76  41  28 SW14      30.07F
6HR MIN TEMP:  56; 6HR MAX TEMP:  76;


$$

INZ062-063-066-070>080-084-089>092-031900-
SOUTH CENTRAL AND SOUTHEAST INDIANA

CITY           SKY/WX    TMP DP  RH WIND       PRES   REMARKS
BEDFORD +      MOSUNNY   77  43  29 S8        30.09F
BLOOMINGTON    MOSUNNY   76  44  32 VRB7      30.08F
6HR MIN TEMP:  55; 6HR MAX TEMP:  77;

MADISON *+     MOSUNNY   75  43  31 S9G20     30.13F
NORTH VERNON + MOSUNNY   75  48  38 S7        30.11F
SEYMOUR +      SUNNY     77  50  38 SW13      30.09F

$$



USA.gov is the U.S. government's official web portal to all federal, state and local government web resources and services.